Latest Coastal Weather Observations for Holmes Reef

IDQ60701

Issued at 5:45 am EST Friday 28 November 2014 (issued every 10 minutes, with the page automatically refreshed every 10 minutes)

About coastal observations | Map of coastal stations | Coastal observations for QLD | Marine services | Other Formats
Station Details ID: 200732 Name: HOLMES REEF Lat: -16.47 Lon: 147.87 Height: 1.9 m
Data from the previous 72 hours. | See also: Recent months at Holmes Reef
Date/Time
EST
Temp

°C
Wind Pressure Rain
since 9am
mm
Weather Cloud Vis
km
Sea
Height
m
Swell
Dir
 
Speed
knots
Gust
knots
hPa Trend Height
m
Period
s
Dir
28/05:30am 26.4 ESE 15 17 1010.6 - - - - - - - - -
28/05:15am 26.5 ESE 15 - 1010.2 - - - - - - - - -
28/05:00am 26.5 ESE 15 17 1010.5 - - - - - - - - -
28/04:30am 26.6 E 15 18 1010.2 - - - - - - - - -
28/04:15am 26.4 E 17 - 1009.9 - - - - - - - - -
28/03:15am 26.8 ESE 16 - 1009.8 - - - - - - - - -
28/03:00am 26.7 ESE 16 19 1010.1 - - - - - - - - -
28/02:30am 26.8 ESE 17 19 1010.1 - - - - - - - - -
28/02:15am 26.7 ESE 16 - 1009.9 - - - - - - - - -
28/02:00am 26.7 ESE 15 18 1010.2 - - - - - - - - -
28/01:30am 26.7 ESE 15 18 1010.5 - - - - - - - - -
28/01:15am 26.8 ESE 15 - 1010.4 - - - - - - - - -
28/01:00am 26.7 ESE 15 17 1010.7 - - - - - - - - -
28/12:30am 26.8 ESE 17 18 1011.0 - - - - - - - - -
28/12:15am 26.8 ESE 17 - 1010.8 - - - - - - - - -
28/12:00am 26.8 ESE 17 20 1011.1 - - - - - - - - -
 
Date/Time
EST
Temp

°C
Wind Pressure Rain
since 9am
mm
Weather Cloud Vis
km
Sea
Height
m
Swell
Dir
 
Speed
knots
Gust
knots
hPa Trend Height
m
Period
s
Dir
27/11:30pm 26.7 SE 18 20 1011.2 - - - - - - - - -
27/11:15pm 26.8 ESE 17 - 1011.0 - - - - - - - - -
27/11:00pm 26.9 SE 17 19 1011.5 - - - - - - - - -
27/10:30pm 26.9 ESE 17 20 1011.6 - - - - - - - - -
27/10:15pm 27.0 ESE 18 - 1011.4 - - - - - - - - -
27/10:00pm 27.1 ESE 17 20 1011.6 - - - - - - - - -
27/09:30pm 27.1 ESE 18 21 1011.5 - - - - - - - - -
27/09:15pm 27.1 SE 18 - 1011.2 - - - - - - - - -
27/09:00pm 27.0 ESE 18 21 1011.5 - - - - - - - - -
27/08:30pm 27.1 SE 18 20 1011.3 - - - - - - - - -
27/08:15pm 27.1 SE 18 - 1010.8 - - - - - - - - -
27/08:00pm 27.0 SE 17 20 1011.1 - - - - - - - - -
27/07:30pm 27.0 SE 16 19 1010.8 - - - - - - - - -
27/07:15pm 27.1 SE 16 - 1010.4 - - - - - - - - -
27/06:30pm 26.9 SE 16 19 1010.3 - - - - - - - - -
27/06:15pm 27.0 SSE 15 - 1010.0 - - - - - - - - -
27/06:00pm 27.0 SSE 15 17 1010.2 - - - - - - - - -
27/05:30pm 27.1 SSE 14 17 1010.1 - - - - - - - - -
27/05:15pm 27.3 SSE 15 - 1009.7 - - - - - - - - -
27/05:00pm 27.3 SSE 14 16 1009.9 - - - - - - - - -
27/04:30pm 27.1 SSE 13 15 1009.7 - - - - - - - - -
27/04:15pm 27.2 SSE 13 - 1009.3 - - - - - - - - -
27/04:00pm 27.1 SSE 13 15 1009.6 - - - - - - - - -
27/03:30pm 26.9 SSE 13 15 1009.4 - - - - - - - - -
27/03:15pm 26.9 SSE 13 - 1009.2 - - - - - - - - -
27/03:00pm 27.0 SSE 13 16 1009.6 - - - - - - - - -
27/02:30pm 27.1 SSE 14 16 1009.9 - - - - - - - - -
27/02:15pm 27.4 SSE 14 - 1009.6 - - - - - - - - -
27/02:00pm 27.1 SSE 14 16 1010.1 - - - - - - - - -
27/01:30pm 27.3 SSE 13 15 1010.4 - - - - - - - - -
27/01:15pm 27.1 SSE 13 - 1010.3 - - - - - - - - -
27/01:00pm 27.1 SSE 12 14 1010.9 - - - - - - - - -
27/12:30pm 26.9 SE 14 15 1011.1 - - - - - - - - -
27/12:15pm 26.9 SE 14 - 1010.8 - - - - - - - - -
27/12:00pm 27.0 SE 13 16 1011.1 - - - - - - - - -
27/11:30am 27.1 ESE 12 14 1011.4 - - - - - - - - -
27/11:00am 27.2 ESE 12 14 1011.8 - - - - - - - - -
27/10:30am 27.2 ESE 12 14 1012.1 - - - - - - - - -
27/10:15am 27.2 SE 12 - 1012.0 - - - - - - - - -
27/10:00am 27.3 ESE 12 14 1012.4 - - - - - - - - -
27/09:30am 27.3 ESE 13 15 1012.4 - - - - - - - - -
27/09:15am 27.1 ESE 13 - 1012.2 - - - - - - - - -
27/09:00am 27.1 ESE 14 16 1012.4 - - - - - - - - -
27/08:30am 27.2 ESE 14 16 1012.5 - - - - - - - - -
27/08:15am 27.2 ESE 14 - 1012.2 - - - - - - - - -
27/08:00am 27.1 SE 13 16 1012.5 - - - - - - - - -
27/07:30am 27.0 SE 14 17 1012.4 - - - - - - - - -
27/07:15am 26.8 SE 15 - 1012.0 - - - - - - - - -
27/07:00am 27.1 SE 14 17 1012.3 - - - - - - - - -
27/06:30am 27.1 ESE 14 16 1012.0 - - - - - - - - -
27/06:15am 26.9 ESE 15 - 1011.5 - - - - - - - - -
27/06:00am 26.8 ESE 14 17 1011.6 - - - - - - - - -
27/05:30am 26.7 ESE 15 19 1011.1 - - - - - - - - -
27/05:15am 26.6 ESE 14 - 1010.7 - - - - - - - - -
27/05:00am 26.8 E 14 16 1010.8 - - - - - - - - -
27/04:30am 26.6 E 15 18 1010.5 - - - - - - - - -
27/04:15am 26.7 E 15 - 1010.1 - - - - - - - - -
27/04:00am 26.9 E 15 17 1010.5 - - - - - - - - -
27/03:30am 26.7 E 16 20 1010.3 - - - - - - - - -
27/03:15am 26.9 E 16 - 1010.0 - - - - - - - - -
27/03:00am 26.8 E 16 19 1010.3 - - - - - - - - -
27/02:30am 26.8 E 17 20 1010.3 - - - - - - - - -
27/02:15am 26.6 E 15 - 1009.9 - - - - - - - - -
27/02:00am 26.5 E 17 19 1010.4 - - - - - - - - -
27/01:30am 26.8 E 16 19 1010.3 - - - - - - - - -
27/01:15am 26.9 E 17 - 1010.2 - - - - - - - - -
27/01:00am 27.0 E 16 18 1010.6 - - - - - - - - -
27/12:30am 27.0 E 15 18 1011.1 - - - - - - - - -
27/12:15am 27.0 E 16 - 1011.0 - - - - - - - - -
27/12:00am 27.1 E 15 18 1011.5 - - - - - - - - -
 
Date/Time
EST
Temp

°C
Wind Pressure Rain
since 9am
mm
Weather Cloud Vis
km
Sea
Height
m
Swell
Dir
 
Speed
knots
Gust
knots
hPa Trend Height
m
Period
s
Dir
26/11:30pm 27.1 E 16 19 1011.9 - - - - - - - - -
26/11:15pm 27.2 E 17 - 1011.8 - - - - - - - - -
26/11:00pm 27.2 E 17 20 1012.2 - - - - - - - - -
26/10:30pm 27.2 E 19 22 1012.1 - - - - - - - - -
26/10:15pm 27.2 E 19 - 1011.8 - - - - - - - - -
26/10:00pm 27.3 E 18 21 1012.1 - - - - - - - - -
26/09:30pm 27.3 E 20 22 1012.0 - - - - - - - - -
26/09:15pm 27.2 E 19 - 1011.6 - - - - - - - - -
26/09:00pm 27.2 E 19 21 1011.8 - - - - - - - - -
26/08:30pm 27.4 E 19 22 1011.6 - - - - - - - - -
26/08:15pm 27.3 ESE 19 - 1011.2 - - - - - - - - -
26/08:00pm 27.2 E 17 20 1011.4 - - - - - - - - -
26/07:30pm 27.2 E 17 21 1011.1 - - - - - - - - -
26/07:15pm 27.0 E 16 - 1010.8 - - - - - - - - -
26/07:00pm 25.5 E 17 21 1011.2 - - - - - - - - -
26/06:30pm 27.2 E 15 18 1010.7 - - - - - - - - -
26/06:15pm 27.3 E 16 - 1010.2 - - - - - - - - -
26/06:00pm 27.2 ESE 15 17 1010.3 - - - - - - - - -
26/05:30pm 27.4 E 14 18 1010.1 - - - - - - - - -
26/05:15pm 27.3 E 15 - 1009.7 - - - - - - - - -
26/05:00pm 27.3 E 17 19 1009.9 - - - - - - - - -
26/04:30pm 27.0 E 15 17 1009.7 - - - - - - - - -
26/04:15pm 26.5 ESE 18 - 1009.3 - - - - - - - - -
26/04:00pm 27.5 E 16 18 1009.6 - - - - - - - - -
26/03:30pm 27.4 E 14 16 1009.7 - - - - - - - - -
26/03:15pm 27.7 E 14 - 1009.4 - - - - - - - - -
26/03:00pm 27.6 E 14 16 1009.8 - - - - - - - - -
26/02:30pm 27.5 E 15 17 1009.8 - - - - - - - - -
26/02:15pm 27.2 E 13 - 1009.6 - - - - - - - - -
26/02:00pm 26.5 E 15 19 1010.1 - - - - - - - - -
26/01:30pm 27.5 ESE 12 14 1010.4 - - - - - - - - -
26/01:15pm 27.5 E 13 - 1010.2 - - - - - - - - -
26/01:00pm 27.5 ESE 12 14 1010.7 - - - - - - - - -
26/12:30pm 27.4 E 14 17 1010.8 - - - - - - - - -
26/12:15pm 27.4 E 14 - 1010.6 - - - - - - - - -
26/12:00pm 27.4 E 14 16 1011.1 - - - - - - - - -
26/11:30am 27.4 ESE 14 17 1011.5 - - - - - - - - -
26/11:15am 27.4 ESE 14 - 1011.3 - - - - - - - - -
26/11:00am 27.4 E 14 16 1011.8 - - - - - - - - -
26/10:30am 27.3 E 15 17 1011.6 - - - - - - - - -
26/10:15am 27.3 E 14 - 1011.5 - - - - - - - - -
26/10:00am 27.3 E 14 16 1011.9 - - - - - - - - -
26/09:30am 27.5 E 14 16 1012.0 - - - - - - - - -
26/09:15am 27.3 E 15 - 1011.6 - - - - - - - - -
26/09:00am 27.2 E 15 17 1011.9 - - - - - - - - -
26/08:30am 27.2 E 15 17 1011.6 - - - - - - - - -
26/08:15am 27.2 E 14 - 1011.2 - - - - - - - - -
26/08:00am 27.3 E 14 16 1011.4 - - - - - - - - -
26/07:30am 27.1 E 14 16 1011.2 - - - - - - - - -
26/07:15am 27.2 E 14 - 1010.7 - - - - - - - - -
26/07:00am 27.0 E 14 16 1010.9 - - - - - - - - -
26/06:30am 26.9 E 15 16 1010.6 - - - - - - - - -
26/06:15am 26.9 E 15 - 1010.2 - - - - - - - - -
26/06:00am 26.9 E 14 17 1010.3 - - - - - - - - -
26/05:30am 26.7 E 14 15 1010.0 - - - - - - - - -
26/05:15am 26.8 E 14 - 1009.5 - - - - - - - - -
26/05:00am 26.7 E 15 18 1009.7 - - - - - - - - -
26/04:30am 26.8 E 15 17 1009.6 - - - - - - - - -
26/04:15am 26.7 E 14 - 1009.2 - - - - - - - - -
26/04:00am 26.7 E 15 17 1009.5 - - - - - - - - -
26/03:30am 26.8 E 16 18 1009.4 - - - - - - - - -
26/03:15am 26.8 E 16 - 1009.0 - - - - - - - - -
26/03:00am 26.8 E 16 19 1009.3 - - - - - - - - -
26/02:30am 26.9 E 16 18 1009.5 - - - - - - - - -
26/02:15am 26.9 E 16 - 1009.2 - - - - - - - - -
26/02:00am 26.9 E 16 19 1009.7 - - - - - - - - -
26/01:30am 27.0 E 15 18 1009.8 - - - - - - - - -
26/01:15am 27.0 E 16 - 1009.6 - - - - - - - - -
26/01:00am 27.1 E 16 18 1009.9 - - - - - - - - -
26/12:30am 26.8 SE 13 15 1010.3 - - - - - - - - -
26/12:15am 27.0 ESE 13 - 1010.2 - - - - - - - - -
26/12:00am 27.3 ESE 13 15 1010.7 - - - - - - - - -
 
Date/Time
EST
Temp

°C
Wind Pressure Rain
since 9am
mm
Weather Cloud Vis
km
Sea
Height
m
Swell
Dir
 
Speed
knots
Gust
knots
hPa Trend Height
m
Period
s
Dir
25/11:30pm 27.2 ESE 14 16 1011.1 - - - - - - - - -
25/11:15pm 27.0 ESE 10 - 1011.1 - - - - - - - - -
25/11:00pm 26.3 E 8 10 1011.6 - - - - - - - - -
25/10:30pm 27.2 ESE 12 14 1011.8 - - - - - - - - -
25/10:15pm 27.1 ESE 13 - 1011.6 - - - - - - - - -
25/10:00pm 27.2 ESE 12 14 1011.9 - - - - - - - - -
25/09:30pm 27.1 ESE 14 16 1011.7 - - - - - - - - -
25/09:15pm 27.2 ESE 14 - 1011.3 - - - - - - - - -
25/09:00pm 27.2 ESE 14 15 1011.4 - - - - - - - - -
25/08:30pm 27.1 ESE 14 16 1011.2 - - - - - - - - -
25/08:15pm 27.1 ESE 14 - 1010.7 - - - - - - - - -
25/08:00pm 27.2 SE 15 17 1010.8 - - - - - - - - -
25/07:30pm 27.1 ESE 16 17 1010.5 - - - - - - - - -
25/07:15pm 27.2 ESE 15 - 1010.0 - - - - - - - - -
25/07:00pm 27.1 ESE 16 18 1010.1 - - - - - - - - -
25/06:30pm 27.2 SE 15 16 1010.0 - - - - - - - - -
25/06:15pm 27.1 SE 14 - 1009.7 - - - - - - - - -
25/06:00pm 27.2 SE 14 16 1009.9 - - - - - - - - -
25/05:30pm 27.3 SE 15 18 1009.9 - - - - - - - - -
25/05:15pm 27.3 SSE 14 - 1009.5 - - - - - - - - -
25/05:00pm 27.3 SSE 15 17 1009.7 - - - - - - - - -
25/04:30pm 27.3 SE 15 17 1009.6 - - - - - - - - -
25/04:15pm 27.3 SE 14 - 1009.3 - - - - - - - - -
25/04:00pm 27.2 SE 15 17 1009.5 - - - - - - - - -
25/03:30pm 27.2 SSE 15 17 1009.6 - - - - - - - - -
25/03:15pm 27.2 SSE 15 - 1009.3 - - - - - - - - -
25/03:00pm 27.3 SSE 15 18 1009.7 - - - - - - - - -
25/02:30pm 27.3 SE 15 17 1010.0 - - - - - - - - -
25/02:15pm 27.3 SE 14 - 1009.7 - - - - - - - - -
25/02:00pm 27.2 SE 15 16 1010.1 - - - - - - - - -
25/01:30pm 27.2 SE 15 17 1010.4 - - - - - - - - -
25/01:15pm 27.1 ESE 15 - 1010.3 - - - - - - - - -
25/01:00pm 27.2 SE 14 17 1010.7 - - - - - - - - -
25/12:30pm 27.1 ESE 14 16 1010.9 - - - - - - - - -
25/12:15pm 27.1 ESE 15 - 1010.6 - - - - - - - - -
25/12:00pm 27.0 ESE 15 17 1011.0 - - - - - - - - -
25/11:30am 27.0 ESE 15 18 1011.3 - - - - - - - - -
25/11:15am 27.0 ESE 14 - 1011.3 - - - - - - - - -
25/11:00am 27.2 ESE 14 16 1011.6 - - - - - - - - -
25/10:30am 27.1 ESE 14 16 1011.7 - - - - - - - - -
25/10:15am 27.1 ESE 16 - 1011.5 - - - - - - - - -
25/10:00am 27.1 ESE 15 18 1011.8 - - - - - - - - -
25/09:30am 27.0 ESE 15 17 1011.9 - - - - - - - - -
25/09:15am 26.9 ESE 15 - 1011.7 - - - - - - - - -
25/09:00am 27.0 ESE 15 17 1012.0 - - - - - - - - -
25/08:30am 27.0 ESE 15 17 1012.0 - - - - - - - - -
25/08:15am 27.0 ESE 15 - 1011.7 - - - - - - - - -
25/08:00am 26.9 ESE 15 17 1011.9 - - - - - - - - -
25/07:30am 27.0 ESE 15 17 1011.9 - - - - - - - - -
25/07:15am 27.0 ESE 15 - 1011.5 - - - - - - - - -
25/07:00am 26.8 ESE 15 17 1011.7 - - - - - - - - -
25/06:30am 26.8 ESE 16 18 1011.6 - - - - - - - - -
25/06:15am 26.7 ESE 16 - 1011.2 - - - - - - - - -
25/06:00am 26.7 ESE 15 17 1011.3 - - - - - - - - -

Other Formats:

Comma delimited format used in spreadsheet applications
http://www.bom.gov.au/fwo/IDQ60701/IDQ60701.94289.axf

JavaScript Object Notation format (JSON) in row-major order
http://www.bom.gov.au/fwo/IDQ60701/IDQ60701.94289.json